Cloud_Cover
15 12 2 6 9 0 0 2 4 0 0 0 0 0 0 0 0 0 1 5 13 100 5 12 5 12 5 84 42 43 96 98 89 100 49 18 91 14 52 100 100 100 5 14 0
18 20 15 2 3 0 0 0 0 0 0 0 0 0 0 2 0 0 0 1 8 79 45 5 34 46 48 54 94 98 64 99 69 94 76 100 94 5 52 94 79 99 5 5 0
12 17 15 9 0 0 0 0 0 0 1 0 0 0 0 2 0 0 0 0 5 5 35 61 5 84 81 45 100 80 100 82 76 59 28 85 75 91 50 70 96 100 5 5 1
12 7 12 12 0 0 0 0 1 0 2 0 0 0 3 0 0 0 0 0 0 5 64 92 7 99 100 95 100 100 97 99 100 90 40 100 100 100 100 60 99 94 41 91 25
0 0 0 0 0 0 0 2 14 21 1 0 0 0 0 0 0 0 0 0 0 0 4 99 13 82 100 100 89 83 40 100 85 53 100 10 21 100 100 49 89 96 100 52 94
0 0 0 0 0 0 2 7 7 3 5 0 0 35 0 0 0 0 0 0 0 0 0 20 12 19 82 80 100 100 98 100 98 59 65 41 28 87 100 59 50 99 100 37 36
0 0 0 0 6 14 0 2 0 0 0 0 0 0 0 0 0 0 0 0 0 0 0 0 72 25 86 86 21 76 90 100 94 52 38 98 99 97 44 100 76 94 8 6 10
0 0 4 1 15 17 3 0 0 0 0 0 2 0 0 0 0 0 0 0 0 0 0 0 2 5 5 100 59 70 100 90 52 49 36 35 100 20 30 98 100 100 43 99 4
0 5 4 10 12 3 0 0 0 0 0 0 8 0 0 0 0 0 0 0 0 0 0 0 0 4 5 14 100 88 100 100 98 9 33 30 100 53 2 7 90 100 62 7 0
1 45 100 7 0 0 0 6 0 30 19 0 0 0 0 0 0 0 0 0 0 0 0 0 0 0 1 23 98 34 61 38 100 1 0 6 41 100 19 26 90 67 5 5 2
64 100 78 0 0 0 15 0 0 0 0 0 0 0 0 0 0 0 0 0 0 0 0 0 0 0 5 5 29 99 100 100 100 4 4 8 77 100 21 100 100 100 8 5 71
100 72 4 0 0 1 12 1 5 0 0 0 0 0 0 0 0 0 0 0 0 0 0 0 0 0 4 5 25 10 7 97 74 23 0 95 12 36 62 20 85 94 76 5 5
23 4 0 0 7 26 0 0 0 0 0 0 0 0 0 0 0 0 0 0 0 0 0 0 0 0 5 5 6 97 100 100 100 34 0 10 1 4 10 0 29 26 100 68 14
63 4 4 2 45 0 0 0 0 0 0 0 0 0 0 0 0 0 0 0 0 0 0 0 0 0 0 5 5 75 99 94 78 98 30 60 82 100 65 12 0 68 66 77 74
1 0 0 65 0 0 0 0 0 0 0 0 0 0 0 0 0 0 0 0 0 0 0 0 0 0 0 1 5 5 100 86 100 92 46 90 5 100 97 42 14 0 99 100 86
0 0 5 7 0 0 0 0 0 0 0 0 0 0 0 0 0 0 0 0 0 0 0 0 0 0 0 1 3 5 36 98 86 99 98 95 96 100 30 48 25 4 79 100 100
0 0 39 0 0 0 0 0 0 0 0 0 0 0 0 0 0 0 0 0 0 0 0 0 0 0 1 5 5 5 7 68 100 98 73 96 100 100 72 100 27 3 0 5 81
0 33 0 0 0 0 0 0 0 0 0 0 0 0 0 4 0 0 0 0 0 0 0 0 0 0 0 2 5 5 6 67 100 100 96 89 100 100 96 43 5 14 0 2 5
37 0 0 0 0 0 0 0 0 0 0 0 0 1 0 100 18 0 0 0 0 0 0 0 0 0 1 0 1 0 4 6 100 100 96 100 68 6 24 0 5 3 50 0 0
0 0 0 0 0 0 0 0 0 0 0 0 0 1 3 52 97 100 46 0 1 0 0 0 0 0 0 2 0 1 1 30 46 56 100 100 100 100 4 2 5 65 5 1 0
0 0 0 0 0 0 0 0 0 0 0 0 1 0 4 46 97 100 100 99 0 0 0 0 0 0 3 5 0 0 21 49 5 18 59 100 100 100 100 91 8 74 8 1 0
0 2 0 0 1 0 0 0 0 0 0 0 0 0 4 5 8 91 100 100 59 0 0 0 0 0 59 15 3 5 5 5 68 4 15 98 100 100 77 20 8 29 25 2 4
0 0 0 0 0 4 0 0 0 0 0 0 0 0 0 0 4 1 97 88 55 0 0 0 0 0 6 98 68 0 0 0 5 25 6 78 34 100 13 100 37 16 0 5 60
0 1 0 0 0 0 0 4 4 0 0 0 0 0 0 0 2 2 38 34 1 0 0 0 0 0 3 4 2 0 0 0 0 5 15 35 91 100 14 4 39 0 1 5 100
0 0 0 1 1 4 5 5 5 0 0 0 0 2 1 0 2 5 5 96 3 30 3 0 0 1 0 32 85 10 0 0 0 0 0 38 100 97 100 98 1 0 1 5 100
0 0 0 4 5 5 5 5 38 3 5 2 2 0 0 0 5 0 5 5 6 94 2 6 24 1 5 0 26 99 5 0 0 0 0 31 92 100 100 94 1 0 0 63 95
1 5 5 5 5 5 13 59 52 5 5 0 0 0 0 1 2 4 0 0 0 7 9 0 0 54 88 99 48 2 0 0 0 0 0 3 6 100 74 0 0 0 23 93 91